Back to catalog

STARLINK-30594

AliveCommunicationsVLEO
NORAD 58097·PAYLOAD·🇺🇸 United States

Launched Oct 21, 2023 from Vandenberg Space Force Base

Loading…

Next Passes (next 24 hours)

TLE

FreshSource: CelesTrak SupGP

Epoch: Sep 14, 2026, 22:38 UTC

1 58097C 23161A   26257.94354167 -.00010385  00000+0 -30689-3 0  2577
2 58097  53.1591   3.6391 0001143  88.9989  38.1626 15.34391092    11

Track STARLINK-30594 in real time with AllMySat

Download on the App Store